User: anonymous   Login
Location: Unspecified
(0.0000°N, 0.0000°E)
Time: 07:19:33
(UTC+00:00)
Language:

Alouette 1 - Orbit

View from above orbital plane
View from above orbital plane
View from above satellite
View from above satellite

Ground track
Ground track

The orbit data is extracted from the following two-line orbital elements,

1 00424U 62049A   15059.90491309  .00000126  00000-0  13452-3 0  9993
2 00424 080.4688 016.8786 0024132 078.9383 302.2466 13.68994861616632
Epoch (UTC): 28 February 2015 21:43:04
Eccentricity: 0.0024132
inclination: 80.4688°
perigee height: 985 km
apogee height: 1021 km
right ascension of ascending node: 16.8786°
argument of perigee: 78.9383°
revolutions per day: 13.68994861
mean anomaly at epoch: 302.2466°
orbit number at epoch: 61663

The dashed part of the orbit path shows where the satellite is in the earth's shadow,  

DLR